Location: Northam
(31.6525°S, 116.6655°E)
Time: 04:49:23
(UTC+08:00)

Envisat - Visible Passes

Search period start: 22 August 2019 00:00
Search period end: 01 September 2019 00:00
Orbit: 764 x 766 km, 98.1° (Epoch: 21 August)

Date Brightness Start Highest point End Pass type
(mag) Time Alt. Az. Time Alt. Az. Time Alt. Az.
22 Aug 4.3 06:05:46 10° NE 06:10:34 44° ESE 06:15:26 10° S visible
22 Aug 4.1 18:20:26 10° SE 18:24:29 23° E 18:28:29 10° NNE visible
22 Aug 4.7 19:58:57 10° S 20:03:27 32° WSW 20:07:56 10° NW visible
23 Aug 5.7 05:30:37 10° ENE 05:34:08 19° ESE 05:37:39 10° SSE visible
23 Aug 3.1 19:21:43 10° S 19:26:52 77° WSW 19:31:57 10° NNW visible
24 Aug 3.3 18:45:13 10° SSE 18:50:07 43° E 18:54:56 10° N visible
24 Aug 5.6 20:25:23 10° SSW 20:28:43 18° WSW 20:32:03 10° WNW visible
25 Aug 4.8 05:54:50 10° NE 05:59:24 34° ESE 06:04:00 10° S visible
25 Aug 4.2 19:47:29 10° S 19:52:17 41° WSW 19:57:01 10° NW visible
26 Aug 5.9 05:20:15 10° E 05:23:00 15° ESE 05:25:45 10° SSE visible
26 Aug 2.9 19:10:29 10° SSE 19:15:39 82° ENE 19:20:44 10° N visible
27 Aug 3.6 18:34:12 10° SSE 18:38:49 33° E 18:43:23 10° NNE visible
27 Aug 5.3 20:13:39 10° SSW 20:17:35 23° WSW 20:21:29 10° WNW visible
28 Aug 5.3 05:44:01 10° NE 05:48:14 27° ESE 05:52:28 10° SSE visible
28 Aug 3.7 19:36:05 10° S 19:41:05 53° WSW 19:46:01 10° NNW visible
29 Aug 6.2 05:10:24 10° E 05:11:54 11° ESE 05:13:23 10° SE visible
29 Aug 3.0 18:59:18 10° SSE 19:04:24 63° E 19:09:26 10° N visible
29 Aug 6.0 20:40:46 10° SW 20:42:47 12° WSW 20:44:48 10° W visible
30 Aug 4.0 18:23:18 10° SE 18:27:31 25° E 18:31:42 10° NNE visible
30 Aug 4.9 20:02:03 10° SSW 20:06:26 29° WSW 20:10:46 10° NW visible
31 Aug 5.7 05:33:21 10° ENE 05:37:05 21° ESE 05:40:51 10° SSE visible
31 Aug 3.3 19:24:45 10° S 19:29:52 70° WSW 19:34:56 10° NNW visible
